User: anonymous   Login
Location: Fountain Hills
(33.6120°N, 111.7170°W)
Time: 08:18:48
(UTC-07:00)
Language:

Hamsat - Orbit

View from above orbital plane
View from above orbital plane
View from above satellite
View from above satellite

Ground track
Ground track

The orbit data is extracted from the following two-line orbital elements,

1 28650U 05017B   15242.55106182  .00000858  00000-0  99616-4 0  9992
2 28650 097.5804 231.6763 0025046 142.2139 218.0842 14.87596299558501
Epoch (UTC): 30 August 2015 13:13:31
Eccentricity: 0.0025046
inclination: 97.5804°
perigee height: 588 km
apogee height: 623 km
right ascension of ascending node: 231.6763°
argument of perigee: 142.2139°
revolutions per day: 14.87596299
mean anomaly at epoch: 218.0842°
orbit number at epoch: 55850

The dashed part of the orbit path shows where the satellite is in the earth's shadow,  

DLR